This is the latest recevied weather packets stored in our database for station/object SR8NGO-1. If no packets are shown the sender has not sent any weather packets the latest 1 day(s).
| Time | Temp. | Humidity | Pressure | Rain* | Wind** | Luminosity | Snow |
|---|---|---|---|---|---|---|---|
| 1778027568 | 12.78° C | 58% | 997.5 hPa | 124.97 mm | 2.68 m/s, 179° | - | - |
| 1778027328 | 13.89° C | 58% | 997.5 hPa | 124.97 mm | 4.47 m/s, 184° | - | - |
| 1778027088 | 12.78° C | 58% | 997.5 hPa | 124.97 mm | 2.68 m/s, 183° | - | - |
| 1778026848 | 12.78° C | 58% | 997.5 hPa | 124.97 mm | 3.58 m/s, 179° | - | - |
| 1778026608 | 12.78° C | 58% | 997.4 hPa | 124.97 mm | 3.13 m/s, 189° | - | - |
| 1778026368 | 12.78° C | 58% | 997.4 hPa | 124.97 mm | 3.58 m/s, 190° | - | - |
| 1778026134 | 12.78° C | 58% | 997.4 hPa | 124.97 mm | 2.68 m/s, 179° | - | - |
| 1778025888 | 12.78° C | 58% | 997.4 hPa | 124.97 mm | 3.13 m/s, 149° | - | - |
| 1778025648 | 12.78° C | 57% | 997.4 hPa | 124.97 mm | 2.68 m/s, 156° | - | - |
| 1778025408 | 12.78° C | 57% | 997.4 hPa | 124.97 mm | 3.58 m/s, 173° | - | - |
| 1778025168 | 12.78° C | 57% | 997.4 hPa | 124.97 mm | 4.02 m/s, 155° | - | - |
| 1778024928 | 12.78° C | 57% | 997.4 hPa | 124.97 mm | 2.68 m/s, 162° | - | - |
| 1778024688 | 12.78° C | 57% | 997.4 hPa | 124.97 mm | 3.13 m/s, 177° | - | - |
| 1778024448 | 12.78° C | 57% | 997.5 hPa | 124.97 mm | 2.68 m/s, 183° | - | - |
| 1778024208 | 13.89° C | 57% | 997.4 hPa | 124.97 mm | 3.58 m/s, 179° | - | - |
| 1778023968 | 13.89° C | 57% | 997.4 hPa | 124.97 mm | 3.13 m/s, 172° | - | - |
| 1778023728 | 13.89° C | 57% | 997.5 hPa | 124.97 mm | 3.58 m/s, 172° | - | - |
| 1778023488 | 13.89° C | 57% | 997.5 hPa | 124.97 mm | 3.13 m/s, 172° | - | - |
| 1778023248 | 13.89° C | 57% | 997.5 hPa | 124.97 mm | 4.47 m/s, 183° | - | - |
| 1778023008 | 13.89° C | 56% | 997.5 hPa | 124.97 mm | 3.13 m/s, 179° | - | - |
| 1778022768 | 13.89° C | 56% | 997.4 hPa | 124.97 mm | 3.13 m/s, 173° | - | - |
| 1778022528 | 13.89° C | 56% | 997.5 hPa | 124.97 mm | 3.13 m/s, 172° | - | - |
| 1778022288 | 13.89° C | 56% | 997.5 hPa | 124.97 mm | 4.02 m/s, 156° | - | - |
| 1778022048 | 13.89° C | 56% | 997.5 hPa | 124.97 mm | 4.02 m/s, 179° | - | - |
| 1778021808 | 13.89° C | 56% | 997.5 hPa | 124.97 mm | 3.13 m/s, 184° | - | - |
* Rain latest hour (hover to see other rain measurements)
** Current wind speed in m/s (hover to see current wind gust speed)